Brownsville, TX

9:33 PM CST on February 25, 2017 (GMT -0600)
Brownsville-South Padre I International

Weather History for KBRO - June, 2013

Change the Weather History Date:

Wednesday, June 5, 2013

  Actual Average Record
Temperature  
Mean Temperature 84 °F 83 °F  
Max Temperature 94 °F 91 °F 97 °F (1942)
Min Temperature 73 °F 75 °F 64 °F (1895)
Degree Days  
Heating Degree Days 0 0  
Month to date heating degree days 0 0  
Since 1 June heating degree days 0 0  
Since 1 July heating degree days 329 554  
Cooling Degree Days 19 18  
Month to date cooling degree days 98 90  
Year to date cooling degree days 1220 1183  
Since 1 June cooling degree days 98 90  
Growing Degree Days 33 (Base 50)    
Moisture  
Dew Point 73 °F    
Average Humidity 73    
Maximum Humidity 100    
Minimum Humidity 46    
Precipitation  
Precipitation 0.00 in 0.08 in 1.31 in (1882)
Month to date precipitation T 0.39  
Year to date precipitation 5.60 8.15  
Sea Level Pressure  
Sea Level Pressure 29.82 in    
Wind  
Wind Speed 8 mph (SE)    
Max Wind Speed 17 mph    
Max Gust Speed 25 mph    
Visibility 10 miles    
Events      
T = Trace of Precipitation, MM = Missing Value Source: NWS Daily Summary

Daily Weather History Graph

Daily Weather History Graph

Search for Another Location

Airport or City:

Trip Planner

Search our weather history database for the weather conditions in past years. The results will help you decide how hot, cold, wet, or windy it might be!

Date:

Astronomy

Jun. 05, 2013 Rise Set
Actual Time 6:37 AM CDT 8:19 PM CDT
Civil Twilight 6:11 AM CDT 8:45 PM CDT
Nautical Twilight 5:40 AM CDT 9:16 PM CDT
Astronomical Twilight 5:08 AM CDT 9:48 PM CDT
Moon 4:29 AM CDT (6/5) 5:57 PM CDT (6/5)
Length of Visible Light 14h 33m
Length of Day
13h 41m
Waning Crescent, 8% of the Moon is Illuminated
Jun 5
Waning Crescent
Jun 8
New
Jun 16
First Quarter
Jun 23
Full
Jun 29
Last Quarter

Hourly Weather History & Observations

Time (CDT) Temp. Heat Index Dew Point Humidity Pressure Visibility Wind Dir Wind Speed Gust Speed Precip Events Conditions
12:53 AM 75.0 °F - 72.0 °F 90% 29.87 in 10.0 mi SE 3.5 mph - N/A   Partly Cloudy
1:14 AM 75.2 °F - 73.4 °F 94% 29.87 in 10.0 mi SSE 3.5 mph - N/A   Mostly Cloudy
1:27 AM 75.2 °F - 73.4 °F 94% 29.87 in 10.0 mi SSE 3.5 mph - N/A   Scattered Clouds
1:53 AM 75.0 °F - 73.0 °F 94% 29.86 in 10.0 mi SSE 4.6 mph - N/A   Partly Cloudy
2:53 AM 73.9 °F - 73.0 °F 97% 29.84 in 10.0 mi SSE 4.6 mph - N/A   Partly Cloudy
3:53 AM 73.9 °F - 72.0 °F 93% 29.83 in 10.0 mi SSE 4.6 mph - N/A   Clear
4:53 AM 73.9 °F - 73.0 °F 97% 29.82 in 10.0 mi Calm Calm - N/A   Clear
5:53 AM 73.0 °F - 73.0 °F 100% 29.82 in 10.0 mi South 4.6 mph - N/A   Clear
6:53 AM 73.9 °F - 73.0 °F 97% 29.81 in 10.0 mi SSE 3.5 mph - N/A   Clear
7:53 AM 78.1 °F - 75.9 °F 93% 29.82 in 10.0 mi SSE 4.6 mph - N/A   Clear
8:53 AM 82.9 °F 90.2 °F 75.0 °F 77% 29.83 in 10.0 mi SE 6.9 mph - N/A   Clear
9:53 AM 84.9 °F 90.7 °F 72.0 °F 65% 29.83 in 10.0 mi SE 5.8 mph - N/A   Partly Cloudy
10:53 AM 87.1 °F 92.0 °F 70.0 °F 57% 29.83 in 10.0 mi Variable 6.9 mph - N/A   Mostly Cloudy
11:53 AM 91.9 °F 96.9 °F 69.1 °F 47% 29.83 in 10.0 mi East 8.1 mph - N/A   Partly Cloudy
12:53 PM 91.0 °F 97.6 °F 71.1 °F 52% 29.82 in 10.0 mi SE 10.4 mph - N/A   Mostly Cloudy
1:53 PM 93.9 °F 100.3 °F 70.0 °F 46% 29.81 in 10.0 mi SE 11.5 mph 19.6 mph N/A   Scattered Clouds
2:53 PM 91.9 °F 97.4 °F 70.0 °F 48% 29.79 in 10.0 mi ESE 12.7 mph 19.6 mph N/A   Partly Cloudy
3:53 PM 91.9 °F 100.7 °F 73.0 °F 54% 29.79 in 10.0 mi East 17.3 mph - N/A   Partly Cloudy
4:53 PM 90.0 °F 96.9 °F 72.0 °F 55% 29.79 in 10.0 mi East 12.7 mph 18.4 mph N/A   Partly Cloudy
5:53 PM 89.1 °F 95.0 °F 71.1 °F 55% 29.77 in 10.0 mi ENE 16.1 mph - N/A   Clear
6:53 PM 87.1 °F 94.5 °F 73.0 °F 63% 29.77 in 10.0 mi East 15.0 mph - N/A   Clear
7:53 PM 84.0 °F 91.2 °F 73.9 °F 72% 29.78 in 10.0 mi East 10.4 mph - N/A   Clear
8:53 PM 81.0 °F 86.2 °F 73.9 °F 79% 29.80 in 10.0 mi East 8.1 mph - N/A   Clear
9:53 PM 80.1 °F 84.5 °F 73.9 °F 81% 29.81 in 10.0 mi East 5.8 mph - N/A   Clear
10:53 PM 79.0 °F - 75.0 °F 88% 29.82 in 10.0 mi ESE 4.6 mph - N/A   Clear
11:53 PM 78.1 °F - 73.9 °F 87% 29.82 in 10.0 mi SE 5.8 mph - N/A   Clear